SM4IVE-5 Weather Reports


Display with metric or nautical units.
time (UTC)temp
F
wind
direction
speed
MPH
gust
MPH
rain 1hr
in
rain 24hr
in
rain mn
in
humidity
%
barometer
mb
20260904115325 57 140 2.0 7.0 0.00 0.00 0.00 91 997.4
20260904114826 57 111 2.0 7.0 0.00 0.00 0.00 91 997.4
20260904114326 57 96 2.0 4.0 0.00 0.00 0.00 91 997.7
20260904113836 57 103 1.0 4.0 0.00 0.00 0.00 90 997.9
20260904113324 56 103 1.0 3.0 0.00 0.00 0.00 90 998.0
20260904112845 56 103 1.0 3.0 0.00 0.00 0.00 88 998.1
20260904112325 56 103 1.0 2.0 0.00 0.00 0.00 87 998.1
20260904111825 56 103 1.0 7.0 0.00 0.00 0.00 86 998.2
20260904111326 56 103 0.0 7.0 0.00 0.00 0.00 86 998.2
20260904110835 56 82 2.0 7.0 0.00 0.00 0.00 86 998.2
20260904110324 56 183 3.0 7.0 0.00 0.00 0.00 86 998.3
20260904105825 57 162 3.0 5.0 0.00 0.00 0.00 90 998.3
20260904105327 57 136 1.0 4.0 0.00 0.00 0.00 90 998.4
20260904104827 57 142 1.0 5.0 0.00 0.00 0.00 89 998.5
20260904104335 57 145 3.0 6.0 0.00 0.00 0.00 88 998.7
20260904103824 58 177 4.0 6.0 0.00 0.00 0.00 87 998.8
20260904103326 58 168 2.0 3.0 0.00 0.00 0.00 87 998.8
20260904102847 58 165 1.0 3.0 0.00 0.00 0.00 85 998.8
20260904102347 58 153 1.0 5.0 0.00 0.00 0.00 85 998.9
20260904101827 58 153 2.0 4.0 0.00 0.00 0.00 84 998.8
20260904101329 58 153 2.0 4.0 0.00 0.00 0.00 84 998.9
20260904100830 58 139 3.0 4.0 0.00 0.00 0.00 84 999.0
20260904100351 57 188 1.0 4.0 0.00 0.00 0.00 85 999.0
20260904095830 57 121 1.0 3.0 0.00 0.00 0.00 85 999.0
20260904095330 57 158 1.0 3.0 0.00 0.00 0.00 85 999.0
20260904094830 57 166 2.0 3.0 0.00 0.00 0.00 86 999.0
20260904094339 57 153 0.0 3.0 0.00 0.00 0.00 87 999.0
20260904093828 57 159 0.0 3.0 0.00 0.00 0.00 87 999.1
20260904093328 57 159 1.0 3.0 0.00 0.00 0.00 87 999.2
20260904092829 57 159 1.0 3.0 0.00 0.00 0.00 87 999.3
20260904092337 57 147 1.0 3.0 0.00 0.00 0.00 88 999.3
20260904091827 57 147 1.0 4.0 0.00 0.00 0.00 87 999.3
20260904091328 57 146 2.0 4.0 0.00 0.00 0.00 87 999.3
20260904090849 56 135 2.0 3.0 0.00 0.00 0.00 89 999.3
20260904090348 56 159 1.0 4.0 0.00 0.00 0.00 88 999.4
20260904085829 56 118 1.0 6.0 0.00 0.00 0.00 88 999.3
20260904085329 56 106 4.0 6.0 0.00 0.00 0.00 88 999.4
20260904084829 56 150 1.0 3.0 0.00 0.00 0.00 89 999.4
20260904084330 56 150 1.0 3.0 0.00 0.00 0.00 90 999.4
20260904083830 56 150 1.0 3.0 0.00 0.00 0.00 89 999.4
20260904083330 56 150 2.0 3.0 0.00 0.00 0.00 89 999.5
20260904082829 56 150 1.0 3.0 0.00 0.00 0.00 90 999.5
20260904082330 56 150 0.0 3.0 0.00 0.00 0.00 90 999.5
20260904081850 56 150 0.0 2.0 0.00 0.00 0.00 91 999.5
20260904081330 56 150 1.0 3.0 0.00 0.00 0.00 92 999.5
20260904080830 56 150 1.0 3.0 0.00 0.00 0.00 92 999.5
20260904080325 55 150 1.0 3.0 0.00 0.00 0.00 93 999.6
20260904075825 55 150 1.0 3.0 0.00 0.00 0.00 94 999.6
20260904075326 54 150 1.0 3.0 0.00 0.00 0.00 94 999.7
20260904074834 54 150 1.0 3.0 0.00 0.00 0.00 95 999.7
20260904074325 53 150 1.0 2.0 0.00 0.00 0.00 95 999.8
20260904073845 53 150 0.0 0.0 0.00 0.00 0.00 95 999.8
20260904073325 53 150 0.0 0.0 0.00 0.00 0.00 95 999.9
20260904072827 52 150 0.0 0.0 0.00 0.00 0.00 95 999.8
20260904072327 52 150 0.0 0.0 0.00 0.00 0.00 95 1000.0
20260904071837 52 150 0.0 0.0 0.00 0.00 0.00 95 1000.1
20260904071325 51 150 0.0 0.0 0.00 0.00 0.00 95 1000.1
20260904070846 51 150 0.0 0.0 0.00 0.00 0.00 95 1000.1
20260904070325 50 150 0.0 1.0 0.00 0.00 0.00 95 1000.1
20260904065827 50 150 0.0 2.0 0.00 0.00 0.00 95 1000.3
20260904065326 50 150 1.0 2.0 0.00 0.00 0.00 95 1000.2
20260904064826 50 150 0.0 2.0 0.00 0.00 0.00 95 1000.2
20260904064327 50 150 0.0 0.0 0.00 0.00 0.00 95 1000.3
20260904063855 50 150 0.0 0.0 0.00 0.00 0.00 95 1000.3
20260904063343 50 150 0.0 0.0 0.00 0.00 0.00 95 1000.3
20260904062824 50 150 0.0 0.0 0.00 0.00 0.00 95 1000.3
20260904062345 49 150 0.0 0.0 0.00 0.00 0.00 95 1000.3
20260904061825 49 150 0.0 0.0 0.00 0.00 0.00 95 1000.2
20260904061327 48 150 0.0 0.0 0.00 0.00 0.00 95 1000.3
20260904060848 48 150 0.0 0.0 0.00 0.00 0.00 95 1000.3
20260904060327 48 150 0.0 0.0 0.00 0.00 0.00 95 1000.3
20260904055829 47 150 0.0 0.0 0.00 0.00 0.00 95 1000.4
20260904055328 47 150 0.0 0.0 0.00 0.00 0.00 95 1000.4
20260904054829 46 150 0.0 0.0 0.00 0.00 0.00 95 1000.4
20260904054350 46 150 0.0 0.0 0.00 0.00 0.00 94 1000.4
20260904053850 46 150 0.0 0.0 0.00 0.00 0.00 94 1000.4
20260904053330 46 150 0.0 0.0 0.00 0.00 0.00 94 1000.4
20260904052830 46 150 0.0 0.0 0.00 0.00 0.00 95 1000.5
20260904052330 45 150 0.0 0.0 0.00 0.00 0.00 94 1000.5
20260904051900 45 150 0.0 0.0 0.00 0.00 0.00 94 1000.6
20260904051328 45 150 0.0 0.0 0.00 0.00 0.00 94 1000.5
20260904050829 45 150 0.0 0.0 0.00 0.00 0.00 94 1000.7
20260904050339 44 150 0.0 0.0 0.00 0.00 0.00 94 1000.7
20260904045827 44 150 0.0 0.0 0.00 0.00 0.00 94 1000.7
20260904045336 44 150 0.0 0.0 0.00 0.00 0.00 94 1000.8
20260904044824 44 150 0.0 1.0 0.00 0.00 0.00 94 1000.7
20260904044330 44 150 0.0 1.0 0.00 0.00 0.00 94 1000.8
20260904043830 43 150 0.0 1.0 0.00 0.00 0.00 94 1000.9
20260904043330 43 150 0.0 2.0 0.00 0.00 0.00 94 1000.8
20260904042849 43 150 1.0 2.0 0.00 0.00 0.00 94 1000.7
20260904042328 43 150 1.0 2.0 0.00 0.00 0.00 94 1000.7
20260904041828 43 150 0.0 0.0 0.00 0.00 0.00 94 1000.6
20260904041328 43 150 0.0 0.0 0.00 0.00 0.00 94 1000.7
20260904040829 42 150 0.0 0.0 0.00 0.00 0.00 93 1000.7
20260904040350 42 150 0.0 0.0 0.00 0.00 0.00 94 1000.9
20260904035829 42 150 0.0 0.0 0.00 0.00 0.00 93 1000.9
20260904035329 42 150 0.0 0.0 0.00 0.00 0.00 93 1001.0
20260904034830 42 150 0.0 0.0 0.00 0.00 0.00 93 1001.0
20260904034330 42 150 0.0 0.0 0.00 0.00 0.00 93 1001.0
20260904033847 42 150 0.0 1.0 0.00 0.00 0.00 93 1001.0
20260904033355 42 150 0.0 1.0 0.00 0.00 0.00 93 1001.0
20260904032824 42 150 1.0 2.0 0.00 0.00 0.00 93 1001.1
20260904032345 42 150 1.0 1.0 0.00 0.00 0.00 93 1001.1
20260904031834 42 150 0.0 0.0 0.00 0.00 0.00 93 1001.2
20260904031343 42 150 0.0 0.0 0.00 0.00 0.00 93 1001.2
20260904030852 42 150 0.0 1.0 0.00 0.00 0.00 93 1001.4
20260904030340 42 150 1.0 2.0 0.00 0.00 0.00 93 1001.4
20260904025828 42 150 1.0 2.0 0.00 0.00 0.00 93 1001.4
20260904025336 42 150 1.0 2.0 0.00 0.00 0.00 93 1001.5
20260904024905 42 150 1.0 2.0 0.00 0.00 0.00 93 1001.5
20260904024325 42 150 0.0 1.0 0.00 0.00 0.00 93 1001.5
20260904023826 42 150 0.0 2.0 0.00 0.00 0.00 93 1001.4
20260904023346 42 150 1.0 2.0 0.00 0.00 0.00 93 1001.3
20260904022825 43 150 0.0 1.0 0.00 0.00 0.00 93 1001.2
20260904022325 43 150 0.0 1.0 0.00 0.00 0.00 93 1001.2
20260904021847 42 150 1.0 1.0 0.00 0.00 0.00 93 1001.3
20260904021328 42 150 0.0 1.0 0.00 0.00 0.00 93 1001.3
20260904020848 42 150 0.0 2.0 0.00 0.00 0.00 93 1001.4
20260904020327 42 150 1.0 2.0 0.00 0.00 0.00 93 1001.5
20260904015828 42 150 1.0 2.0 0.00 0.00 0.00 93 1001.6
20260904015329 42 150 1.0 2.0 0.00 0.00 0.00 92 1001.6
20260904014828 42 150 1.0 2.0 0.00 0.00 0.00 92 1001.7
20260904014351 42 150 1.0 2.0 0.00 0.00 0.00 92 1001.8
20260904013850 43 150 1.0 2.0 0.00 0.00 0.00 92 1001.8
20260904013349 43 150 1.0 2.0 0.00 0.00 0.00 92 1001.9
20260904012831 43 150 1.0 2.0 0.00 0.00 0.00 92 1001.9
20260904012338 43 150 0.0 1.0 0.00 0.00 0.00 92 1001.9
20260904011826 43 150 0.0 1.0 0.00 0.00 0.00 92 1001.9
20260904011332 43 150 0.0 2.0 0.00 0.00 0.00 92 1001.9
20260904010838 43 150 1.0 2.0 0.00 0.00 0.00 92 1002.0
20260904010345 43 150 0.0 1.0 0.00 0.00 0.00 92 1002.0
20260904005851 43 150 1.0 2.0 0.00 0.00 0.00 92 1002.0
20260904005330 43 150 1.0 2.0 0.00 0.00 0.00 92 1002.1
20260904004852 44 150 1.0 2.0 0.00 0.00 0.00 92 1002.2
20260904004331 44 150 0.0 1.0 0.00 0.00 0.00 92 1002.2
20260904003832 44 150 0.0 1.0 0.00 0.00 0.00 92 1002.2
20260904003339 44 150 0.0 1.0 0.00 0.00 0.00 92 1002.3
20260904002829 44 150 0.0 2.0 0.00 0.00 0.00 92 1002.4
20260904002330 44 150 1.0 2.0 0.00 0.00 0.00 92 1002.5
20260904001829 44 150 2.0 2.0 0.00 0.00 0.00 92 1002.5
20260904001337 44 150 0.0 2.0 0.00 0.00 0.00 92 1002.5
20260904000825 44 150 1.0 2.0 0.00 0.00 0.00 92 1002.5
20260904000333 44 150 0.0 2.0 0.00 0.00 0.00 91 1002.6
20260903235900 44 150 1.0 2.0 0.00 0.00 0.00 91 1002.5
20260903235329 44 150 2.0 2.0 0.00 0.00 0.00 91 1002.6
20260903234828 44 150 1.0 2.0 0.00 0.00 0.00 91 1002.6
20260903234337 44 150 1.0 2.0 0.00 0.00 0.00 91 1002.7
20260903233846 44 150 1.0 2.0 0.00 0.00 0.00 91 1002.7
20260903233352 44 150 1.0 2.0 0.00 0.00 0.00 90 1002.8
20260903232831 44 150 1.0 1.0 0.00 0.00 0.00 90 1002.8
20260903232339 45 150 0.0 1.0 0.00 0.00 0.00 91 1002.9
20260903231828 45 150 0.0 2.0 0.00 0.00 0.00 90 1002.8
20260903231336 45 150 1.0 2.0 0.00 0.00 0.00 90 1002.8
20260903230824 45 150 1.0 2.0 0.00 0.00 0.00 90 1002.8
20260903230352 45 150 1.0 2.0 0.00 0.00 0.00 90 1002.9
20260903225835 45 150 2.0 2.0 0.00 0.00 0.00 90 1003.0
20260903225328 45 150 1.0 1.0 0.00 0.00 0.00 90 1003.0
20260903224828 46 150 0.0 1.0 0.00 0.00 0.00 89 1003.0
20260903224329 46 150 0.0 1.0 0.00 0.00 0.00 89 1003.1
20260903223838 46 150 0.0 1.0 0.00 0.00 0.00 89 1003.1
20260903223327 46 150 0.0 2.0 0.00 0.00 0.00 89 1003.2
20260903222828 46 150 0.0 2.0 0.00 0.00 0.00 89 1003.3
20260903222329 46 150 1.0 2.0 0.00 0.00 0.00 88 1003.3
20260903221829 46 150 0.0 2.0 0.00 0.00 0.00 88 1003.3
20260903221331 47 150 1.0 2.0 0.00 0.00 0.00 88 1003.4
20260903220847 47 150 0.0 2.0 0.00 0.00 0.00 88 1003.3
20260903220327 47 150 0.0 0.0 0.00 0.00 0.00 87 1003.3
20260903215836 47 150 0.0 0.0 0.00 0.00 0.00 87 1003.4
20260903215329 47 150 0.0 0.0 0.00 0.00 0.00 87 1003.4
20260903214846 47 150 0.0 2.0 0.00 0.00 0.00 87 1003.4
20260903214327 47 150 1.0 2.0 0.00 0.00 0.00 88 1003.5
20260903213847 47 150 1.0 2.0 0.00 0.00 0.00 88 1003.5
20260903213347 47 150 0.0 2.0 0.00 0.00 0.00 87 1003.6
20260903212826 47 150 1.0 2.0 0.00 0.00 0.00 88 1003.6
20260903212336 47 150 0.0 2.0 0.00 0.00 0.00 88 1003.6
20260903211824 47 150 1.0 2.0 0.00 0.00 0.00 88 1003.6
20260903211345 47 150 1.0 3.0 0.00 0.00 0.00 88 1003.6
20260903210825 47 150 1.0 3.0 0.00 0.00 0.00 88 1003.6
20260903210326 47 150 1.0 3.0 0.00 0.00 0.00 88 1003.7
20260903205827 47 150 1.0 3.0 0.00 0.00 0.00 88 1003.6
20260903205356 48 245 1.0 2.0 0.00 0.00 0.00 88 1003.6
20260903204843 48 246 1.0 2.0 0.00 0.00 0.00 88 1003.5
20260903204325 48 246 1.0 2.0 0.00 0.00 0.00 88 1003.6
20260903203825 48 245 1.0 2.0 0.00 0.00 0.00 88 1003.6
20260903203326 48 246 1.0 2.0 0.00 0.00 0.00 87 1003.6
20260903202826 48 245 1.0 2.0 0.00 0.00 0.00 87 1003.6
20260903202327 48 245 0.0 2.0 0.00 0.00 0.00 87 1003.6
20260903201827 48 246 1.0 2.0 0.00 0.00 0.00 87 1003.6
20260903201349 48 246 1.0 2.0 0.00 0.00 0.00 87 1003.7
20260903200829 48 245 1.0 2.0 0.00 0.00 0.00 87 1003.7
20260903200329 48 246 1.0 2.0 0.00 0.00 0.00 86 1003.8
20260903195831 48 245 1.0 3.0 0.00 0.00 0.00 86 1003.8
20260903195331 48 246 1.0 3.0 0.00 0.00 0.00 85 1003.9
20260903194831 49 246 1.0 2.0 0.00 0.00 0.00 84 1003.8
20260903194332 49 245 1.0 2.0 0.00 0.00 0.00 84 1003.8
20260903193900 49 246 0.0 0.0 0.00 0.00 0.00 83 1003.9
20260903193329 50 246 0.0 0.0 0.00 0.00 0.00 83 1004.0
20260903192829 50 245 0.0 0.0 0.00 0.00 0.00 82 1004.0
20260903192329 50 245 0.0 1.0 0.00 0.00 0.00 82 1004.1
20260903191850 51 246 1.0 2.0 0.00 0.00 0.00 81 1004.1
20260903191330 51 246 1.0 2.0 0.00 0.00 0.00 79 1004.2
20260903190830 52 245 1.0 2.0 0.00 0.00 0.00 78 1004.2
20260903190330 52 246 1.0 2.0 0.00 0.00 0.00 77 1004.2
20260903185830 53 246 1.0 2.0 0.00 0.00 0.00 75 1004.3
20260903185328 53 245 1.0 2.0 0.00 0.00 0.00 73 1004.3
20260903184829 54 245 1.0 2.0 0.00 0.00 0.00 72 1004.3
20260903184329 54 246 1.0 2.0 0.00 0.00 0.00 71 1004.4
20260903183830 54 246 0.0 1.0 0.00 0.00 0.00 70 1004.3
20260903183330 55 245 0.0 1.0 0.00 0.00 0.00 69 1004.4
20260903182831 55 245 0.0 2.0 0.00 0.00 0.00 68 1004.4
20260903182331 56 246 1.0 2.0 0.00 0.00 0.00 68 1004.4
20260903181832 56 246 0.0 2.0 0.00 0.00 0.00 66 1004.4
20260903181339 57 245 1.0 3.0 0.00 0.00 0.00 65 1004.5
20260903180829 57 246 1.0 3.0 0.00 0.00 0.00 63 1004.5
20260903180330 58 246 0.0 2.0 0.00 0.00 0.00 63 1004.5
20260903175829 58 249 1.0 2.0 0.00 0.00 0.00 62 1004.5
20260903175329 59 250 1.0 2.0 0.00 0.00 0.00 61 1004.6
20260903174829 59 250 0.0 3.0 0.00 0.00 0.00 60 1004.6
20260903174330 59 250 0.0 4.0 0.00 0.00 0.00 61 1004.6
20260903173831 59 286 1.0 4.0 0.00 0.00 0.00 58 1004.6
20260903173339 60 288 1.0 5.0 0.00 0.00 0.00 59 1004.6
20260903172829 60 287 3.0 5.0 0.00 0.00 0.00 58 1004.5
20260903172329 60 288 1.0 5.0 0.00 0.00 0.00 59 1004.6
20260903171838 60 292 2.0 4.0 0.00 0.00 0.00 58 1004.6
20260903171328 61 292 2.0 4.0 0.00 0.00 0.00 57 1004.7
20260903170828 61 292 1.0 3.0 0.00 0.00 0.00 59 1004.7
20260903170329 61 292 1.0 3.0 0.00 0.00 0.00 59 1004.7
20260903165832 61 292 1.0 3.0 0.00 0.00 0.00 57 1004.7
20260903165332 62 292 0.0 2.0 0.00 0.00 0.00 57 1004.7
20260903164840 62 292 1.0 2.0 0.00 0.00 0.00 56 1004.7
20260903164326 62 292 0.0 4.0 0.00 0.00 0.00 56 1004.7
20260903163853 62 292 2.0 5.0 0.00 0.00 0.00 56 1004.7
20260903163400 63 306 1.0 5.0 0.00 0.00 0.00 55 1004.7
20260903162829 63 307 2.0 4.0 0.00 0.00 0.00 55 1004.7
20260903162350 63 304 1.0 4.0 0.00 0.00 0.00 55 1004.7
20260903161830 64 288 2.0 5.0 0.00 0.00 0.00 56 1004.7
20260903161330 64 304 2.0 7.0 0.00 0.00 0.00 55 1004.7
20260903160851 65 279 3.0 7.0 0.00 0.00 0.00 54 1004.7
20260903160330 65 309 2.0 8.0 0.00 0.00 0.00 55 1004.7
20260903155330 65 290 1.0 10.0 0.00 0.00 0.00 54 1004.7
20260903154859 66 253 4.0 10.0 0.00 0.00 0.00 51 1004.9
20260903154327 66 318 2.0 8.0 0.00 0.00 0.00 51 1005.0
20260903153836 66 290 3.0 9.0 0.00 0.00 0.00 50 1005.0
20260903153324 66 286 2.0 10.0 0.00 0.00 0.00 49 1005.0
20260903152833 66 298 3.0 10.0 0.00 0.00 0.00 49 1005.1
20260903152339 66 269 3.0 10.0 0.00 0.00 0.00 48 1005.2
20260903151825 66 292 2.0 7.0 0.00 0.00 0.00 48 1005.2
20260903151332 66 241 2.0 7.0 0.00 0.00 0.00 47 1005.2
20260903150830 67 272 2.0 8.0 0.00 0.00 0.00 46 1005.2
20260903150358 67 296 3.0 8.0 0.00 0.00 0.00 46 1005.3
20260903145824 67 269 3.0 9.0 0.00 0.00 0.00 45 1005.3
20260903145352 67 304 3.0 9.0 0.00 0.00 0.00 45 1005.3
20260903144839 67 276 4.0 11.0 0.00 0.00 0.00 46 1005.5
20260903144328 67 334 2.0 8.0 0.00 0.00 0.00 49 1005.5
20260903143829 67 248 2.0 10.0 0.00 0.00 0.00 48 1005.5
20260903143353 66 302 3.0 10.0 0.00 0.00 0.00 49 1005.5
20260903142824 66 286 5.0 10.0 0.00 0.00 0.00 50 1005.6
20260903142348 66 309 3.0 8.0 0.00 0.00 0.00 53 1005.6
20260903141827 66 276 2.0 11.0 0.00 0.00 0.00 54 1005.7
20260903141349 66 317 3.0 11.0 0.00 0.00 0.00 54 1005.7
20260903140856 66 302 3.0 11.0 0.00 0.00 0.00 55 1005.8
20260903140324 66 280 3.0 10.0 0.00 0.00 0.00 54 1005.8
20260903135825 66 306 4.0 10.0 0.00 0.00 0.00 53 1005.9
20260903135325 66 241 2.0 9.0 0.00 0.00 0.00 53 1006.0
20260903134825 66 281 3.0 11.0 0.00 0.00 0.00 54 1006.1
20260903134325 66 307 6.0 12.0 0.00 0.00 0.00 53 1006.0
20260903133826 66 290 5.0 12.0 0.00 0.00 0.00 51 1006.0
20260903133326 66 277 2.0 10.0 0.00 0.00 0.00 54 1006.1
20260903132834 65 281 5.0 11.0 0.00 0.00 0.00 53 1006.1
20260903132324 65 323 6.0 12.0 0.00 0.00 0.00 53 1006.1
20260903131825 66 323 6.0 13.0 0.00 0.00 0.00 52 1006.2
20260903131327 66 287 4.0 12.0 0.00 0.00 0.00 55 1006.1
20260903130835 66 288 4.0 12.0 0.00 0.00 0.00 54 1006.1
20260903130343 66 296 5.0 11.0 0.00 0.00 0.00 54 1006.1
20260903125826 65 286 3.0 14.0 0.00 0.00 0.00 55 1006.1
20260903125327 65 242 3.0 14.0 0.00 0.00 0.00 57 1006.1
20260903124827 64 304 5.0 12.0 0.00 0.00 0.00 57 1006.1
20260903124336 64 284 4.0 12.0 0.00 0.00 0.00 59 1006.2
20260903123825 65 268 2.0 13.0 0.00 0.00 0.00 57 1006.2
20260903123327 65 315 6.0 13.0 0.00 0.00 0.00 55 1006.2
20260903122835 66 288 5.0 16.0 0.00 0.00 0.00 56 1006.2
20260903122343 66 302 7.0 16.0 0.00 0.00 0.00 54 1006.2
20260903121850 65 273 4.0 15.0 0.00 0.00 0.00 54 1006.1
20260903121336 65 300 5.0 15.0 0.00 0.00 0.00 56 1006.1
20260903120825 65 287 6.0 13.0 0.00 0.00 0.00 56 1006.2
20260903120325 65 268 6.0 12.0 0.00 0.00 0.00 55 1006.2
20260903115846 66 281 4.0 12.0 0.00 0.00 0.00 55 1006.3